Weather in Infanta

Philippines     14°44′41″N   121°38′53″E
temp.,
°C
wind,
m/s
gust,
m/s
humid.,
%
clouds,
%
prec.,
mm/h
press.,
hPa
HPBL,
m
12 august, fri
fri1223:00+28w2272100 1.1 1011189
02:00+28nw2272100 1.1 1009310
05:00+28wnw1172100 0.0 1009295
08:00+28sw117186 0.0 1010304
11:00+28sse227283 0.0 1010235
14:00+30se226597 0.1 1007372
17:00+30sse226531 1.3 1007356
20:00+29ese2273100 5.2 1009102
13 august, sat
sat1323:00+29wnw1071100 3.3 1010163
02:00+28nw227673 4.4 100888
05:00+28nnw2274100 0.3 1008379
08:00+28wsw1173100 0.3 1010388
11:00+28se0073100 0.0 1009268
14:00+29e116792 0.1 1007386
17:00+28nne0177100 5.1 100755
20:00+29nne1171100 10.9 1008227
14 august, sun
sun1423:00+28w1174100 3.1 100966
02:00+28w1172100 3.7 1007260
05:00+28n1172100 0.0 1007400
08:00+28n2173100 0.0 1008473
11:00+28ene0171100 0.0 1008421
14:00+29e226979 0.1 1006407
17:00+29sse116899 0.4 1007394
20:00+29sse2270100 1.3 1008392
15 august, mon
mon1523:00+28sw1177100 3.4 100960
02:00+28wnw117343 5.6 1007307
05:00+28wnw1173100 0.4 1007248
08:00+28ssw1172100 0.4 1008381
11:00+28se1172100 0.0 1008347
14:00+29sse2270100 0.5 1006371
17:00+29s3374100 1.1 1006447
20:00+28wsw2173100 2.6 1008320
16 august, tue
tue1623:00+28wnw2273100 1.2 1009249
02:00+28wnw2272100 2.4 1007274
05:00+28nnw1171100 0.0 1007417
08:00+28w1172100 0.4 1009324
11:00+28ene216997 0.0 1008334
14:00+29wsw0165100 0.8 1006277
17:00+29se116588 1.6 1006460
20:00+28e117432 4.6 100977